Regional Weather Roundup
Issued by NWS

Home | Current Version | Previous Version | Graphics & Text | Print | Product List | Glossary On
Versions: 1 2 3 4 5 6 7 8 9 10 11 12 13 14 15 16 17 18 19 20 21 22 23 24 25 26 27 28
000
ASUS45 KSLC 270210
RWRUT

UTAH REGIONAL WEATHER ROUNDUP
NATIONAL WEATHER SERVICE SALT LAKE CITY UT
800 PM MDT MON SEP 26 2016

UTZ001>011-023>025-270300-

NORTHERN UTAH

CITY           SKY/WX    TMP DP  RH WIND       PRES   REMARKS
BRIGHAM CITY     N/A     64  49  60 SE3       30.27S
HILL AFB       CLEAR     62  51  66 W5        30.28F
LOGAN          PTCLDY    65  49  56 SE5       30.26F
OGDEN          CLEAR     61  50  67 W5        30.26F
PROVO AIRPORT  CLEAR     61  50  67 VRB6      30.28S
SALT LAKE CITY PTCLDY    63  49  60 W5        30.26S
VERNAL         CLEAR     56  48  74 W3        30.32R
WENDOVER       CLEAR     66  41  39 W3        30.28F
HEBER CITY     CLEAR     63  37  39 SW7       30.29R
WEST JORDAN    CLEAR     62  47  58 W3        30.29S

$$

UTZ012>022-026-027-270300-

SOUTHERN/CENTRAL UTAH

CITY           SKY/WX    TMP DP  RH WIND       PRES   REMARKS
BLANDING       CLEAR     65  33  29 NW3       30.35F
BRYCE CANYON   CLEAR     53  35  50 CALM      30.41S
CEDAR CITY     CLEAR     63  35  35 NE7       30.27R
DELTA          CLEAR     63  41  45 N7        30.26S
MILFORD        CLEAR     64  37  36 N8        30.26R
MOAB/CYNLANDS  CLEAR     68  34  28 W8        30.23S
PRICE          CLEAR     60  42  51 N9        30.31F
ST GEORGE      CLEAR     82  36  18 CALM      30.10S

$$

REGIONAL REPORTS     COLORADO/ARIZONA

CITY           SKY/WX    TMP DP  RH WIND       PRES   REMARKS
CRAIG, CO      CLEAR     51  36  56 CALM      30.37R
GRAND JUNCTION CLEAR     67  35  30 N8        30.24S
RIFLE          CLEAR     63  42  46 S3        30.29R
MONTROSE       CLEAR     60  41  49 S7        30.31S
CORTEZ         CLEAR     59  40  49 CALM      30.29S
PAGE, AZ       CLEAR     74  33  22 N3        30.19F
GRAND CANYON   CLEAR     54  38  54 NE5       30.33S
KINGMAN        CLEAR     81  32  17 NE15      30.07R
FLAGSTAFF      MOCLDY    58  32  37 E7        30.31S

$$

REGIONAL REPORTS    NEVADA/IDAHO/WYOMING

CITY           SKY/WX    TMP DP  RH WIND       PRES   REMARKS
LAS VEGAS, NV  PTCLDY    88  29  12 NW7       30.02S
ELY            CLEAR     62  35  36 N9        30.31S
ELKO           CLEAR     70  39  32 E5        30.23S
POCATELLO, ID  CLOUDY    58  47  66 S3        30.28S
BURLEY         PTCLDY    63  44  50 E6        30.22F
EVANSTON, WY   CLOUDY    62  34  35 N5        30.40S
ROCK SPRINGS   CLEAR     58  38  47 E5        30.39S

$$




USA.gov is the U.S. government's official web portal to all federal, state and local government web resources and services.